This is the latest recevied weather packets stored in our database for station/object KI4BIY. If no packets are shown the sender has not sent any weather packets the latest 10 day(s).
| Time | Temp. | Humidity | Pressure | Rain* | Wind** | Luminosity | Snow |
|---|---|---|---|---|---|---|---|
| 1778187054 | 18.89° C | 53% | 1014.9 hPa | 0 mm | - | 39 W/m² | - |
| 1778186751 | 18.89° C | 57% | 1015.1 hPa | 0 mm | - | 38 W/m² | - |
| 1778186448 | 18.89° C | 52% | 1015.1 hPa | 0 mm | - | 93 W/m² | - |
| 1778186146 | 19.44° C | 54% | 1015.1 hPa | 0 mm | - | 55 W/m² | - |
| 1778185843 | 19.44° C | 55% | 1015.2 hPa | 0 mm | - | 66 W/m² | - |
| 1778185539 | 19.44° C | 50% | 1014.9 hPa | 0 mm | - | 100 W/m² | - |
| 1778185235 | 20° C | 53% | 1015.3 hPa | 0 mm | - | 86 W/m² | - |
| 1778184931 | 20° C | 51% | 1015.1 hPa | 0 mm | - | 327 W/m² | - |
| 1778184627 | 20° C | 52% | 1015.3 hPa | 0 mm | - | 85 W/m² | - |
| 1778184323 | 20.56° C | 57% | 1015.2 hPa | 0 mm | - | 339 W/m² | - |
| 1778184019 | 20° C | 47% | 1015.4 hPa | 0 mm | - | 645 W/m² | - |
| 1778183717 | 20.56° C | 47% | 1015.1 hPa | 0 mm | - | 622 W/m² | - |
| 1778183414 | 20.56° C | 50% | 1015.2 hPa | 0 mm | - | 611 W/m² | - |
| 1778183110 | 20.56° C | 53% | 1015.4 hPa | 0 mm | - | 666 W/m² | - |
| 1778182806 | 20.56° C | 50% | 1015.3 hPa | 0 mm | - | 680 W/m² | - |
| 1778182504 | 20.56° C | 50% | 1015.5 hPa | 0 mm | - | 624 W/m² | - |
| 1778182200 | 20.56° C | 50% | 1015.8 hPa | 0 mm | - | 652 W/m² | - |
| 1778181896 | 20.56° C | 50% | 1015.5 hPa | 0 mm | - | 680 W/m² | - |
| 1778181594 | 20° C | 48% | 1015.7 hPa | 0 mm | - | 634 W/m² | - |
| 1778181289 | 20.56° C | 50% | 1015.9 hPa | 0 mm | - | 620 W/m² | - |
| 1778180986 | 20.56° C | 53% | 1015.7 hPa | 0 mm | - | 688 W/m² | - |
| 1778180684 | 20.56° C | 49% | 1016 hPa | 0 mm | - | 603 W/m² | - |
| 1778180383 | 20.56° C | 48% | 1015.7 hPa | 0 mm | - | 520 W/m² | - |
| 1778180079 | 20.56° C | 50% | 1015.6 hPa | 0 mm | - | 520 W/m² | - |
| 1778179776 | 20.56° C | 52% | 1015.7 hPa | 0 mm | - | 611 W/m² | - |
* Rain latest hour (hover to see other rain measurements)
** Current wind speed in m/s (hover to see current wind gust speed)